Avoca, PA

11:44 AM EDT on October 21, 2019 (GMT -0400)
Wilkes-Barre-Scranton International

Weather History for KAVP - September, 2019

Change the Weather History Date:

Tuesday, September 17, 2019

  Actual Average Record
Temperature  
Mean Temperature 64 °F 62 °F  
Max Temperature 77 °F 72 °F 87 °F (1991)
Min Temperature 51 °F 52 °F 36 °F (1986)
Degree Days  
Heating Degree Days 1 5  
Month to date heating degree days 8 47  
Since 1 July heating degree days 9 73  
Cooling Degree Days 0 1  
Month to date cooling degree days 61 41  
Year to date cooling degree days 800 565  
Growing Degree Days 14 (Base 50)    
Moisture  
Dew Point 47 °F    
Average Humidity 60    
Maximum Humidity 89    
Minimum Humidity 31    
Precipitation  
Precipitation 0.00 in 0.14 in 2.54 in (2004)
Month to date precipitation 0.55 2.24  
Year to date precipitation 38.21 27.27  
Sea Level Pressure  
Sea Level Pressure 30.15 in    
Wind  
Wind Speed 5 mph (ENE)    
Max Wind Speed 14 mph    
Max Gust Speed 19 mph    
Visibility 10 miles    
Events      
T = Trace of Precipitation, MM = Missing Value Source: NWS Daily Summary

Daily Weather History Graph

Daily Weather History Graph

Search for Another Location

Airport or City:

Astronomy

Sep. 17, 2019 Rise Set
Actual Time 6:45 AM EDT 7:09 PM EDT
Civil Twilight 6:17 AM EDT 7:36 PM EDT
Nautical Twilight 5:44 AM EDT 8:09 PM EDT
Astronomical Twilight 5:11 AM EDT 8:42 PM EDT
Moon 9:09 PM EDT (9/17) 9:48 AM EDT (9/17)
Length of Visible Light 13h 19m
Length of Day
12h 24m
Waning Gibbous, 89% of the Moon is Illuminated
Sep 17
Waning Gibbous
Sep 21
Last Quarter
Sep 28
New
Oct 5
First Quarter
Oct 13
Full

Hourly Weather History & Observations

Time (EDT) Temp. Dew Point Humidity Pressure Visibility Wind Dir Wind Speed Gust Speed Precip Events Conditions
12:54 AM 59.0 °F 53.1 °F 81% 30.10 in 10.0 mi East 4.6 mph - N/A   Clear
1:54 AM 57.0 °F 52.0 °F 83% 30.12 in 10.0 mi East 5.8 mph - N/A   Clear
2:54 AM 55.0 °F 51.1 °F 86% 30.11 in 10.0 mi ESE 4.6 mph - N/A   Clear
3:54 AM 53.1 °F 50.0 °F 89% 30.11 in 10.0 mi ESE 3.5 mph - N/A   Clear
4:54 AM 52.0 °F 48.9 °F 89% 30.12 in 10.0 mi ESE 3.5 mph - N/A   Clear
5:54 AM 52.0 °F 48.0 °F 86% 30.14 in 10.0 mi ESE 5.8 mph - N/A   Partly Cloudy
6:54 AM 51.1 °F 48.0 °F 89% 30.16 in 10.0 mi ESE 5.8 mph - N/A   Clear
7:54 AM 53.1 °F 48.0 °F 83% 30.18 in 10.0 mi East 4.6 mph - N/A   Clear
8:54 AM 59.0 °F 50.0 °F 72% 30.19 in 10.0 mi Calm Calm - N/A   Clear
9:54 AM 62.1 °F 50.0 °F 65% 30.20 in 10.0 mi NW 3.5 mph - N/A   Clear
10:54 AM 66.0 °F 48.0 °F 52% 30.19 in 10.0 mi Calm Calm - N/A   Clear
11:54 AM 70.0 °F 45.0 °F 41% 30.18 in 10.0 mi Calm Calm - N/A   Clear
12:54 PM 73.0 °F 46.0 °F 38% 30.17 in 10.0 mi Variable 5.8 mph - N/A   Clear
1:54 PM 75.9 °F 44.1 °F 32% 30.15 in 10.0 mi North 6.9 mph - N/A   Clear
2:54 PM 77.0 °F 44.1 °F 31% 30.13 in 10.0 mi North 9.2 mph - N/A   Clear
3:54 PM 77.0 °F 44.1 °F 31% 30.12 in 10.0 mi North 9.2 mph - N/A   Clear
4:54 PM 75.9 °F 42.1 °F 30% 30.12 in 10.0 mi North 9.2 mph - N/A   Clear
5:54 PM 75.0 °F 48.0 °F 38% 30.12 in 10.0 mi North 9.2 mph - N/A   Clear
6:54 PM 71.1 °F 48.9 °F 45% 30.12 in 10.0 mi North 6.9 mph - N/A   Clear
7:54 PM 64.0 °F 48.9 °F 58% 30.15 in 10.0 mi East 4.6 mph - N/A   Clear
8:54 PM 60.1 °F 46.9 °F 62% 30.17 in 10.0 mi ESE 6.9 mph - N/A   Clear
9:54 PM 57.9 °F 46.0 °F 65% 30.18 in 10.0 mi ESE 6.9 mph - N/A   Clear
10:54 PM 55.9 °F 46.9 °F 72% 30.19 in 10.0 mi ESE 5.8 mph - N/A   Clear
11:54 PM 54.0 °F 46.9 °F 77% 30.19 in 10.0 mi ESE 5.8 mph - N/A   Clear